CZ-6A DEB, 54543

Orbit data source: Space-Track

CZ-6A DEB, 54543 is space debris in SSO originally from a launch on Fri, 11 Nov 2022 UTC launched from the Taiyaun Space Center, China (TSC). Debris objects in space refer to the collection of defunct objects orbiting the Earth. Examples of debris include non-operational satellites, rocket bodies, and fragments generated from explosions, collisions, or faulty payload assembly.

Loading next visibility...
Identifier
54543, 2022-151KT
Orbit
SSO
Country
Flag of CNCN / PRC
Related business
Manufacturer
SAST
Mission
Spacecraft
Bus & Motor
Unknown
Mass
Unknown
Launch date (UTC)
2022-11-11 (4 years ago)
Launch vehicle
Unknown
Launch site
Taiyaun Space Center, China (TSC)
Object type
Payload
Rocket body
Debris
Shape & HBR
Unknown shape, 0.1 m
Radar Cross Section
Medium (>0.1 m² and <1 m²)

Expand to show TLE details & history
Last TLE update: 2 days ago

TLE from 2 days ago
0 CZ-6A DEB
1 54543U 22151KT  26171.15582624  .00001751  00000-0  41673-3 0  9990
2 54543  98.7327 246.8779 0108636 310.3341  48.8402 14.51711100189949
Epoch: 2026-06-20T03:44Z
TLE epoch observation values (Epoch: 2026-06-20T03:44:23.387Z)
Latitude
0.00004°
Longitude
-77.59405°
Altitude
672.74 km
Speed
7.547 km/s
True Right ascension
16h 27m 30s
True Declination
0° 00' 00"
Sunlit
Object was in full shadow at epoch
Visualization orbit readout
Latitude
Unknown
Longitude
Unknown
Altitude
Unknown
Speed
Unknown
Apparent Right ascension
Unknown
Apparent Declination
Unknown
Sunlit
N/A
Visualization observer readout
Local Sidereal Time
21:35:30
Azimuth
Unknown
Elevation
Unknown
Doppler factor
Unknown
Orbital elements
Apogee altitude
794.263 km
Perigee altitude
640.102 km
Semi-major axis
7,095.319 km
Eccentricity
0.01086
Inclination
98.7327°
RAAN
246.8779°
Arg. of periapsis
310.3341°
True anomaly
49.78585°
Mean anomaly
48.8402°
Eccentric anomaly
49.31218°
Mean motion
3.63149 °/min
Orbital period
99.13 mins
BSTAR
0.00041673
Loading maneuver chart data...
Computing Atmospheric mass density...
Loading historical data...
Loading historical data...
Loading historical data...
Loading historical data...
Loading historical data...
Loading historical data...
Loading historical data...

Documentation

Showing up to 5 results
|